Погода Богучаны

Погода Богучаны : погода сейчас, прогноз погоды и архив. Всё, что Вы хотите узнать о погоде Богучаны!

Хотите узнать прогноз погоды Богучаны? Тогда Вам сюда: Погода Богучаны

Поиск расширенной информации на нашем сайте:

Другие новости

Новости СМИ2

Главная страница сайта

Новости сайта

02.10.2013

Напоминаем, что на нашем новом сайте вы можете получить высокодетализированные прогнозы погоды по пунктам России, СНГ и мира (включающие важные для авиации метеовеличины, такие как направление и скорость ветра, видимость, явления погоды, количество и форма облачности, нижняя и верхняя граница облачности), а также ознакомиться с разнообразными материалами по авиационной метеорологии и подборкой полезных ссылок на эту тему.

Сайт Метеоцентр.Азия посвящён разработке технологий оптимизации авиаметеорологического обслуживания, включая проектирование и перспективное создание нескольких автоматизированных авиаметеорологических систем:
- система выпуска высокодетальных прогностических карт явлений погоды для нижнего воздушного пространства по России и ближнему зарубежью;
- система верификации прогнозов TAF (выпускаемых синоптиками официальных АМСГ РФ и ближнего зарубежья) и AUTOTAF (выпускаемых сайтом Метеоцентр.Азия) - выявление ошибок, онлайн-сопоставление с фактической погодой METAR, автоматическое внесение коррективов в прогнозы при резком отклонении фактической погоды от прогноза, подсчёт оправдываемости прогнозов по элементам и в целом;
- система обработки, анализа и отображения авиаметеорологической информации для применения провайдерами метеорологической информации.

Рекомендуем: заказ рулонных жалюзи

Погода Богучаны - сегодня

Время (UTC), дата Ветер
(°,м/с) 
Видим.   Явления Облачность Т
(°С)
Тd
(°С)
f(%) Тe
(°С)
Pmin
(гПа)
dP
(гПа)
Po
(мм)
O2
(г/м3)
Тmin Tmax R s Состояние
почвы
06 19.01.17 280 (З) 20000 м  {снег}  6/0 верхняя 
[Ci fib]
-18.8 -21.8 77 -19  1029.2  0.8  758  330           
09 19.01.17 240 (ЮЗ) 20000 м    3/0 верхняя 
[Ci fib]
-19.3 -22.3 77 -22  1030.6  1.4  759  331           
12 19.01.17 250 (З) 12000 м  слаб. снег  10/0 верхняя 
[Cs]
-19.8 -22.3 80 -23  1032.2  1.5  760  332    -18  0.2     
15 19.01.17 270 (З) 50000 м  слаб. снег  6/0 верхняя 
[Ci fib]
-22.7 -25.3 79 -23  1033.8  1.3  761  336           
18 19.01.17 280 (З) 50000 м  {снег}  4/0 верхняя 
[Ci fib]
-28.2 -31 77 -29  1035.3  1.1  762  344           
21 19.01.17 290 (З) 50000 м    ясно 
-31.4 -34.6 73 -32  1036.8  1.2  763  349           
00 20.01.17 тихо ()   26000 м    ясно 
-32.8 -36.3 71 -33  1037.8  0.9  764  352  -33.9    0.0  38  равномерный
сухой снег
100% 
03 20.01.17 тихо ()   10 км    6/0 верхняя 
[Ci fib]
-33.9 -37.6 69 -34  1038.6  0.7  764  354  -34.4         
06 20.01.17 тихо ()   10 км    3/0 верхняя 
[Ci fib]
-30 -33.4 72 -30  1038.3  764  348           
09 20.01.17 тихо ()   10 км    8/0 верхняя 
[Ci fib]
-29.1 -32.3 74 -29  1038.3  0.1  764  347           
12 20.01.17 тихо ()   27000 м    8/0 верхняя 
[Ci fib]
-31.3 -34.7 72 -31  1038.1  -0.4  764  350    -27.5       
15 20.01.17 тихо ()   25000 м    6/0 верхняя 
[Ci fib]
-29.9 -33.2 73 -30  1037.2  -0.8  763  347           
18 20.01.17 250 (З) 29000 м    3/0 верхняя 
[Ci fib]
-28.3 -31.4 75 -29  1035.3  -1.7  762  345           
21 20.01.17 270 (З) 27000 м    8/0 верхняя 
[Ci fib]
-27.9 -31 75 -29  1034.2  -1  761  344           
00 21.01.17 260 (З) 28000 м    1/0 верхняя 
[Ci fib]
-27.9 -31 75 -29  1032.5  -1.7  760  343  -31.3      38  равномерный
сухой снег
100% 
03 21.01.17 260 (З) 10 км    10/0 верхняя 
[Cs]
-25.8 -28.7 77 -26  1030.7  -1.6  759  340           
06 21.01.17 270 (З) 10 км    10/0 верхняя 
[Cs]
-22.6 -25.6 76 -23  1028.6  -1.8  758  335           
09 21.01.17 250 (З) 10 км    10/0 верхняя 
[Cs]
-19.9 -22.8 78 -20  1026.7  -1.7  756  330           
12 21.01.17 240 (ЮЗ) 10 км  слаб. снег  10/4 600 м средняя 
[Frnb|Ac As]
-17.7 -20.1 81 -18  1025.3  -1.2  755  327    -17.7  0.2     
15 21.01.17 250 (З) 11000 м  слаб. снег  10/3 600 м средняя 
[Frnb|Ac As]
-19.7 -21.8 83 -20  1023.7  -1.7  754  329           
18 21.01.17 030 (СВ) 50000 м  {снег}  10/4 600 м средняя 
[Frnb|Ac As]
-16 -18.3 82 -16  1021.6  -1.9  753  324           
21 21.01.17 120 (ЮВ) 50000 м    10/3 600 м средняя 
[Frnb|Ac As]
-14.4 -17.2 79 -14  1019.9  -1.4  752  321           
00 22.01.17 350 (С) 14000 м  слаб. ливневой снег  8/8 600 м кучево-дожд. 
[Cb cap]
-11.4 -14.2 80 -11  1019.1  -0.6  751  317  -20.4    0.2  38  равномерный
сухой снег
100% 
03 22.01.17 210 (ЮЗ) 10 км  слаб. снег{ливн. осадки}  10/0 средняя 
[Ac As]
-9.3 -12.5 77 -11  1019.5  0.4  752  315           
06 22.01.17 290 (З) 10 км  слаб. снег{ливн. осадки}  10/0 средняя 
[Ac As]
-7.7 -11 77 -9  1019.4  0.1  752  313           
Время (UTC), дата Ветер
(°,м/с) 
Видим.   Явления Облачность Т
(°С)
Тd
(°С)
f(%) Тe
(°С)
Pmin
(гПа)
dP
(гПа)
Po
(мм)
O2
(г/м3)
Тmin Tmax R s Состояние
почвы

Для получения пояснительной информации подведите курсор к названию столбца.

ПОГОДА Богучаны - архив

Всё, что Вы хотите узнать о погоде Богучаны - удобно и подробно!

Выберите нужную дату (начиная с 1 января 2015* года) и нажмите кнопку "Найти".
Будут отображены архивные сводки погоды по пункту Богучаны, начиная с указанной даты.


Отображать данные в формате CSV (для использования в таблицах Excel)


Внимание! Наш архив погоды предназначен исключительно для личного некоммерческого использования в познавательных целях. Если Вам необходимы официальные справки о состоянии погоды (для производственных, юридических, коммерческих и т.п. целей), обращайтесь в органы Росгидромета.

*Примечание: данная дата относится к архиву по метеостанциям СССР (Россия, СНГ, Балтия).
Архив по метеостанциям Зарубежной Европы и Азии (кроме Китая) хранится 10 дней, по другим регионам земного шара (Китай, Африка, Америка, Австралия, Океания) - 1 день.

Богучаны - район местоположения метеостанции


Название, широта, долгота, высота метеостанции:
Богучаны 58.4°ш. 97.4°д. 133 м над ур. моря [Российская Федерация]

Дополнительная информация

В oтличие oт бoльшинства пoгoдных сайтoв мы публикуем пoдрoбную метеoинфoрмацию в детальнoм прoфессиoнальнoм фoрмате.

Характеристики температуры и влажнoсти вoздуха измеряются на высoте 2 м в тени вдали oт зданий и деревьев.
Скoрoсть ветра измеряется на высoте 10 м (на урoвне рoста челoвека скoрoсть ветра ниже в 1.5-2 раза). Если метеoстанция нахoдится в гoрoде или в лесу, тo скoрoсть ветра занижена на 2-4 м/с пo сравнению с oткрытым местoм. Скoрoсть ветра над акватoриями крупных рек и oзёр, а также на вершинах хoлмoв на 2-5 м/с выше, чем в oбычных услoвиях.
Атмoсфернoе давление в разных тoчках местнoсти мoжет значительнo oтличаться oт давления на метеoстанции, в зависимoсти oт услoвий рельефа (при пoдъёме на 10 м давление пoнижается примернo на 1 мм рт.ст.).